owner,sensor,date,latitude,longitude,vertical_datum,sea_water_temperature,qcFlag 
DISL,ioos:station:DISL:DISL:1,2013-08-01T00:00:00Z,30.2513,-88.0778,-1.72,30.56,2 
DISL,ioos:station:DISL:DISL:1,2013-08-01T00:30:00Z,30.2513,-88.0778,-1.72,30.46,2 
DISL,ioos:station:DISL:DISL:1,2013-08-01T01:00:00Z,30.2513,-88.0778,-1.72,30.13,2 
DISL,ioos:station:DISL:DISL:1,2013-08-01T01:30:00Z,30.2513,-88.0778,-1.72,30.06,2 
DISL,ioos:station:DISL:DISL:1,2013-08-01T02:00:00Z,30.2513,-88.0778,-1.72,30.06,2 
DISL,ioos:station:DISL:DISL:1,2013-08-01T02:30:00Z,30.2513,-88.0778,-1.72,29.87,2 
DISL,ioos:station:DISL:DISL:1,2013-08-01T03:00:00Z,30.2513,-88.0778,-1.72,30.4,2 
DISL,ioos:station:DISL:DISL:1,2013-08-01T03:30:00Z,30.2513,-88.0778,-1.72,30.69,2 
DISL,ioos:station:DISL:DISL:1,2013-08-01T04:00:00Z,30.2513,-88.0778,-1.72,30.7,2 
DISL,ioos:station:DISL:DISL:1,2013-08-01T04:30:00Z,30.2513,-88.0778,-1.72,30.6,2 
DISL,ioos:station:DISL:DISL:1,2013-08-01T05:00:00Z,30.2513,-88.0778,-1.72,30.42,2 
DISL,ioos:station:DISL:DISL:1,2013-08-01T05:30:00Z,30.2513,-88.0778,-1.72,30.32,2 
DISL,ioos:station:DISL:DISL:1,2013-08-01T06:00:00Z,30.2513,-88.0778,-1.72,29.93,2 
DISL,ioos:station:DISL:DISL:1,2013-08-01T06:30:00Z,30.2513,-88.0778,-1.72,30.05,2 
DISL,ioos:station:DISL:DISL:1,2013-08-01T07:00:00Z,30.2513,-88.0778,-1.72,30.03,2 
DISL,ioos:station:DISL:DISL:1,2013-08-01T07:30:00Z,30.2513,-88.0778,-1.72,29.98,2 
DISL,ioos:station:DISL:DISL:1,2013-08-01T08:00:00Z,30.2513,-88.0778,-1.72,29.93,2 
DISL,ioos:station:DISL:DISL:1,2013-08-01T08:30:00Z,30.2513,-88.0778,-1.72,29.79,2 
DISL,ioos:station:DISL:DISL:1,2013-08-01T09:00:00Z,30.2513,-88.0778,-1.72,29.77,2 
DISL,ioos:station:DISL:DISL:1,2013-08-01T09:30:00Z,30.2513,-88.0778,-1.72,29.72,2 
DISL,ioos:station:DISL:DISL:1,2013-08-01T10:00:00Z,30.2513,-88.0778,-1.72,29.71,2 
DISL,ioos:station:DISL:DISL:1,2013-08-01T10:30:00Z,30.2513,-88.0778,-1.72,29.66,2 
DISL,ioos:station:DISL:DISL:1,2013-08-01T11:00:00Z,30.2513,-88.0778,-1.72,29.68,2 
DISL,ioos:station:DISL:DISL:1,2013-08-01T11:30:00Z,30.2513,-88.0778,-1.72,29.73,2 
DISL,ioos:station:DISL:DISL:1,2013-08-01T12:00:00Z,30.2513,-88.0778,-1.72,29.64,2 
DISL,ioos:station:DISL:DISL:1,2013-08-01T12:30:00Z,30.2513,-88.0778,-1.72,29.64,2 
DISL,ioos:station:DISL:DISL:1,2013-08-01T13:00:00Z,30.2513,-88.0778,-1.72,29.63,2 
DISL,ioos:station:DISL:DISL:1,2013-08-01T13:30:00Z,30.2513,-88.0778,-1.72,29.65,2 
DISL,ioos:station:DISL:DISL:1,2013-08-01T14:00:00Z,30.2513,-88.0778,-1.72,29.61,2 
DISL,ioos:station:DISL:DISL:1,2013-08-01T14:30:00Z,30.2513,-88.0778,-1.72,29.65,2 
DISL,ioos:station:DISL:DISL:1,2013-08-01T15:00:00Z,30.2513,-88.0778,-1.72,29.7,2 
DISL,ioos:station:DISL:DISL:1,2013-08-01T15:30:00Z,30.2513,-88.0778,-1.72,29.77,2 
DISL,ioos:station:DISL:DISL:1,2013-08-01T16:00:00Z,30.2513,-88.0778,-1.72,29.8,2 
DISL,ioos:station:DISL:DISL:1,2013-08-01T16:30:00Z,30.2513,-88.0778,-1.72,29.93,2 
DISL,ioos:station:DISL:DISL:1,2013-08-01T17:00:00Z,30.2513,-88.0778,-1.72,29.86,2 
DISL,ioos:station:DISL:DISL:1,2013-08-01T17:30:00Z,30.2513,-88.0778,-1.72,30.03,2 
DISL,ioos:station:DISL:DISL:1,2013-08-01T18:00:00Z,30.2513,-88.0778,-1.72,30.19,2 
DISL,ioos:station:DISL:DISL:1,2013-08-01T18:30:00Z,30.2513,-88.0778,-1.72,30.22,2 
DISL,ioos:station:DISL:DISL:1,2013-08-01T19:00:00Z,30.2513,-88.0778,-1.72,30.07,2 
DISL,ioos:station:DISL:DISL:1,2013-08-01T19:30:00Z,30.2513,-88.0778,-1.72,30.23,2 
DISL,ioos:station:DISL:DISL:1,2013-08-01T20:00:00Z,30.2513,-88.0778,-1.72,30.34,2 
DISL,ioos:station:DISL:DISL:1,2013-08-01T20:30:00Z,30.2513,-88.0778,-1.72,30.44,2 
DISL,ioos:station:DISL:DISL:1,2013-08-01T21:00:00Z,30.2513,-88.0778,-1.72,30.45,2 
DISL,ioos:station:DISL:DISL:1,2013-08-01T21:30:00Z,30.2513,-88.0778,-1.72,30.23,2 
DISL,ioos:station:DISL:DISL:1,2013-08-01T22:00:00Z,30.2513,-88.0778,-1.72,30.26,2 
DISL,ioos:station:DISL:DISL:1,2013-08-01T22:30:00Z,30.2513,-88.0778,-1.72,30.08,2 
DISL,ioos:station:DISL:DISL:1,2013-08-01T23:00:00Z,30.2513,-88.0778,-1.72,30.07,2 
DISL,ioos:station:DISL:DISL:1,2013-08-01T23:30:00Z,30.2513,-88.0778,-1.72,29.85,2 
DISL,ioos:station:DISL:DISL:1,2013-08-02T00:00:00Z,30.2513,-88.0778,-1.72,29.93,2 
DISL,ioos:station:DISL:DISL:1,2013-08-02T00:30:00Z,30.2513,-88.0778,-1.72,29.9,2 
DISL,ioos:station:DISL:DISL:1,2013-08-02T01:00:00Z,30.2513,-88.0778,-1.72,29.86,2 
DISL,ioos:station:DISL:DISL:1,2013-08-02T01:30:00Z,30.2513,-88.0778,-1.72,29.75,2 
DISL,ioos:station:DISL:DISL:1,2013-08-02T02:00:00Z,30.2513,-88.0778,-1.72,29.7,2 
DISL,ioos:station:DISL:DISL:1,2013-08-02T02:30:00Z,30.2513,-88.0778,-1.72,29.75,2 
DISL,ioos:station:DISL:DISL:1,2013-08-02T03:00:00Z,30.2513,-88.0778,-1.72,29.7,2 
DISL,ioos:station:DISL:DISL:1,2013-08-02T03:30:00Z,30.2513,-88.0778,-1.72,29.89,2 
DISL,ioos:station:DISL:DISL:1,2013-08-02T04:00:00Z,30.2513,-88.0778,-1.72,29.84,2 
DISL,ioos:station:DISL:DISL:1,2013-08-02T04:30:00Z,30.2513,-88.0778,-1.72,29.89,2 
DISL,ioos:station:DISL:DISL:1,2013-08-02T05:00:00Z,30.2513,-88.0778,-1.72,29.84,2 
DISL,ioos:station:DISL:DISL:1,2013-08-02T05:30:00Z,30.2513,-88.0778,-1.72,29.81,2 
DISL,ioos:station:DISL:DISL:1,2013-08-02T06:00:00Z,30.2513,-88.0778,-1.72,29.79,2 
DISL,ioos:station:DISL:DISL:1,2013-08-02T06:30:00Z,30.2513,-88.0778,-1.72,29.79,2 
DISL,ioos:station:DISL:DISL:1,2013-08-02T07:00:00Z,30.2513,-88.0778,-1.72,29.67,2 
DISL,ioos:station:DISL:DISL:1,2013-08-02T07:30:00Z,30.2513,-88.0778,-1.72,29.71,2 
DISL,ioos:station:DISL:DISL:1,2013-08-02T08:00:00Z,30.2513,-88.0778,-1.72,29.61,2 
DISL,ioos:station:DISL:DISL:1,2013-08-02T08:30:00Z,30.2513,-88.0778,-1.72,29.34,2 
DISL,ioos:station:DISL:DISL:1,2013-08-02T09:00:00Z,30.2513,-88.0778,-1.72,29.18,2 
DISL,ioos:station:DISL:DISL:1,2013-08-02T09:30:00Z,30.2513,-88.0778,-1.72,29.1,2 
DISL,ioos:station:DISL:DISL:1,2013-08-02T10:00:00Z,30.2513,-88.0778,-1.72,29.28,2 
DISL,ioos:station:DISL:DISL:1,2013-08-02T10:30:00Z,30.2513,-88.0778,-1.72,29.19,2 
DISL,ioos:station:DISL:DISL:1,2013-08-02T11:00:00Z,30.2513,-88.0778,-1.72,29.28,2 
DISL,ioos:station:DISL:DISL:1,2013-08-02T11:30:00Z,30.2513,-88.0778,-1.72,28.91,2 
DISL,ioos:station:DISL:DISL:1,2013-08-02T12:00:00Z,30.2513,-88.0778,-1.72,29.13,2 
DISL,ioos:station:DISL:DISL:1,2013-08-02T12:30:00Z,30.2513,-88.0778,-1.72,29.14,2 
DISL,ioos:station:DISL:DISL:1,2013-08-02T13:00:00Z,30.2513,-88.0778,-1.72,29.05,2 
DISL,ioos:station:DISL:DISL:1,2013-08-02T13:30:00Z,30.2513,-88.0778,-1.72,29.12,2 
DISL,ioos:station:DISL:DISL:1,2013-08-02T14:00:00Z,30.2513,-88.0778,-1.72,29.09,2 
DISL,ioos:station:DISL:DISL:1,2013-08-02T14:30:00Z,30.2513,-88.0778,-1.72,28.8,2 
DISL,ioos:station:DISL:DISL:1,2013-08-02T15:00:00Z,30.2513,-88.0778,-1.72,29.14,2 
DISL,ioos:station:DISL:DISL:1,2013-08-02T15:30:00Z,30.2513,-88.0778,-1.72,29.18,2 
DISL,ioos:station:DISL:DISL:1,2013-08-02T16:00:00Z,30.2513,-88.0778,-1.72,29.29,2 
DISL,ioos:station:DISL:DISL:1,2013-08-02T16:30:00Z,30.2513,-88.0778,-1.72,29.44,2 
DISL,ioos:station:DISL:DISL:1,2013-08-02T17:00:00Z,30.2513,-88.0778,-1.72,29.76,2 
DISL,ioos:station:DISL:DISL:1,2013-08-02T17:30:00Z,30.2513,-88.0778,-1.72,29.94,2 
DISL,ioos:station:DISL:DISL:1,2013-08-02T18:00:00Z,30.2513,-88.0778,-1.72,30.15,2 
DISL,ioos:station:DISL:DISL:1,2013-08-02T18:30:00Z,30.2513,-88.0778,-1.72,30.77,2 
DISL,ioos:station:DISL:DISL:1,2013-08-02T19:00:00Z,30.2513,-88.0778,-1.72,30.86,2 
DISL,ioos:station:DISL:DISL:1,2013-08-02T19:30:00Z,30.2513,-88.0778,-1.72,30.98,2 
DISL,ioos:station:DISL:DISL:1,2013-08-02T20:00:00Z,30.2513,-88.0778,-1.72,31.08,2 
DISL,ioos:station:DISL:DISL:1,2013-08-02T20:30:00Z,30.2513,-88.0778,-1.72,31.03,2 
DISL,ioos:station:DISL:DISL:1,2013-08-02T21:00:00Z,30.2513,-88.0778,-1.72,31.02,2 
DISL,ioos:station:DISL:DISL:1,2013-08-02T21:30:00Z,30.2513,-88.0778,-1.72,31.42,2 
DISL,ioos:station:DISL:DISL:1,2013-08-02T22:00:00Z,30.2513,-88.0778,-1.72,31.57,2 
DISL,ioos:station:DISL:DISL:1,2013-08-02T22:30:00Z,30.2513,-88.0778,-1.72,31.64,2 
DISL,ioos:station:DISL:DISL:1,2013-08-02T23:00:00Z,30.2513,-88.0778,-1.72,31.73,2 
DISL,ioos:station:DISL:DISL:1,2013-08-02T23:30:00Z,30.2513,-88.0778,-1.72,31.73,2 
DISL,ioos:station:DISL:DISL:1,2013-08-03T00:00:00Z,30.2513,-88.0778,-1.72,31.68,2 
DISL,ioos:station:DISL:DISL:1,2013-08-03T00:30:00Z,30.2513,-88.0778,-1.72,31.56,2 
DISL,ioos:station:DISL:DISL:1,2013-08-03T01:00:00Z,30.2513,-88.0778,-1.72,31.46,2 
DISL,ioos:station:DISL:DISL:1,2013-08-03T01:30:00Z,30.2513,-88.0778,-1.72,31.33,2 
DISL,ioos:station:DISL:DISL:1,2013-08-03T02:00:00Z,30.2513,-88.0778,-1.72,31.34,2 
DISL,ioos:station:DISL:DISL:1,2013-08-03T02:30:00Z,30.2513,-88.0778,-1.72,31.31,2 
DISL,ioos:station:DISL:DISL:1,2013-08-03T03:00:00Z,30.2513,-88.0778,-1.72,31.22,2 
DISL,ioos:station:DISL:DISL:1,2013-08-03T03:30:00Z,30.2513,-88.0778,-1.72,31.11,2 
DISL,ioos:station:DISL:DISL:1,2013-08-03T04:00:00Z,30.2513,-88.0778,-1.72,31.13,2 
DISL,ioos:station:DISL:DISL:1,2013-08-03T04:30:00Z,30.2513,-88.0778,-1.72,31.22,2 
DISL,ioos:station:DISL:DISL:1,2013-08-03T05:00:00Z,30.2513,-88.0778,-1.72,30.75,2 
DISL,ioos:station:DISL:DISL:1,2013-08-03T05:30:00Z,30.2513,-88.0778,-1.72,30.3,2 
DISL,ioos:station:DISL:DISL:1,2013-08-03T06:00:00Z,30.2513,-88.0778,-1.72,30.17,2 
DISL,ioos:station:DISL:DISL:1,2013-08-03T06:30:00Z,30.2513,-88.0778,-1.72,29.92,2 
DISL,ioos:station:DISL:DISL:1,2013-08-03T07:00:00Z,30.2513,-88.0778,-1.72,29.77,2 
DISL,ioos:station:DISL:DISL:1,2013-08-03T07:30:00Z,30.2513,-88.0778,-1.72,29.79,2 
DISL,ioos:station:DISL:DISL:1,2013-08-03T08:00:00Z,30.2513,-88.0778,-1.72,29.53,2 
DISL,ioos:station:DISL:DISL:1,2013-08-03T08:30:00Z,30.2513,-88.0778,-1.72,29.48,2 
DISL,ioos:station:DISL:DISL:1,2013-08-03T09:00:00Z,30.2513,-88.0778,-1.72,29.51,2 
DISL,ioos:station:DISL:DISL:1,2013-08-03T09:30:00Z,30.2513,-88.0778,-1.72,29.46,2 
DISL,ioos:station:DISL:DISL:1,2013-08-03T10:00:00Z,30.2513,-88.0778,-1.72,29.41,2 
DISL,ioos:station:DISL:DISL:1,2013-08-03T10:30:00Z,30.2513,-88.0778,-1.72,29.36,2 
DISL,ioos:station:DISL:DISL:1,2013-08-03T11:00:00Z,30.2513,-88.0778,-1.72,29.53,2 
DISL,ioos:station:DISL:DISL:1,2013-08-03T11:30:00Z,30.2513,-88.0778,-1.72,29.54,2 
DISL,ioos:station:DISL:DISL:1,2013-08-03T12:00:00Z,30.2513,-88.0778,-1.72,30.1,2 
DISL,ioos:station:DISL:DISL:1,2013-08-03T12:30:00Z,30.2513,-88.0778,-1.72,30.06,2 
DISL,ioos:station:DISL:DISL:1,2013-08-03T13:00:00Z,30.2513,-88.0778,-1.72,30.07,2 
DISL,ioos:station:DISL:DISL:1,2013-08-03T13:30:00Z,30.2513,-88.0778,-1.72,30.2,2 
DISL,ioos:station:DISL:DISL:1,2013-08-03T14:00:00Z,30.2513,-88.0778,-1.72,30.33,2 
DISL,ioos:station:DISL:DISL:1,2013-08-03T14:30:00Z,30.2513,-88.0778,-1.72,30.29,2 
DISL,ioos:station:DISL:DISL:1,2013-08-03T15:00:00Z,30.2513,-88.0778,-1.72,30.49,2 
DISL,ioos:station:DISL:DISL:1,2013-08-03T15:30:00Z,30.2513,-88.0778,-1.72,30.5,2 
DISL,ioos:station:DISL:DISL:1,2013-08-03T16:00:00Z,30.2513,-88.0778,-1.72,30.63,2 
DISL,ioos:station:DISL:DISL:1,2013-08-03T16:30:00Z,30.2513,-88.0778,-1.72,30.75,2 
DISL,ioos:station:DISL:DISL:1,2013-08-03T17:00:00Z,30.2513,-88.0778,-1.72,30.97,2 
DISL,ioos:station:DISL:DISL:1,2013-08-03T17:30:00Z,30.2513,-88.0778,-1.72,31.12,2 
DISL,ioos:station:DISL:DISL:1,2013-08-03T18:00:00Z,30.2513,-88.0778,-1.72,31.17,2 
DISL,ioos:station:DISL:DISL:1,2013-08-03T18:30:00Z,30.2513,-88.0778,-1.72,32.06,2 
DISL,ioos:station:DISL:DISL:1,2013-08-03T19:00:00Z,30.2513,-88.0778,-1.72,32.33,2 
DISL,ioos:station:DISL:DISL:1,2013-08-03T19:30:00Z,30.2513,-88.0778,-1.72,33.03,2 
DISL,ioos:station:DISL:DISL:1,2013-08-03T20:00:00Z,30.2513,-88.0778,-1.72,33.07,2 
DISL,ioos:station:DISL:DISL:1,2013-08-03T20:30:00Z,30.2513,-88.0778,-1.72,33.01,2 
DISL,ioos:station:DISL:DISL:1,2013-08-03T21:00:00Z,30.2513,-88.0778,-1.72,32.86,2 
DISL,ioos:station:DISL:DISL:1,2013-08-03T21:30:00Z,30.2513,-88.0778,-1.72,32.96,2 
DISL,ioos:station:DISL:DISL:1,2013-08-03T22:00:00Z,30.2513,-88.0778,-1.72,33.01,2 
DISL,ioos:station:DISL:DISL:1,2013-08-03T22:30:00Z,30.2513,-88.0778,-1.72,32.96,2 
DISL,ioos:station:DISL:DISL:1,2013-08-03T23:00:00Z,30.2513,-88.0778,-1.72,32.85,2 
DISL,ioos:station:DISL:DISL:1,2013-08-03T23:30:00Z,30.2513,-88.0778,-1.72,32.11,2 
DISL,ioos:station:DISL:DISL:1,2013-08-04T00:00:00Z,30.2513,-88.0778,-1.72,31.35,2 
DISL,ioos:station:DISL:DISL:1,2013-08-04T00:30:00Z,30.2513,-88.0778,-1.72,30.99,2 
DISL,ioos:station:DISL:DISL:1,2013-08-04T01:00:00Z,30.2513,-88.0778,-1.72,30.61,2 
DISL,ioos:station:DISL:DISL:1,2013-08-04T01:30:00Z,30.2513,-88.0778,-1.72,30.39,2 
DISL,ioos:station:DISL:DISL:1,2013-08-04T02:00:00Z,30.2513,-88.0778,-1.72,30.23,2 
DISL,ioos:station:DISL:DISL:1,2013-08-04T02:30:00Z,30.2513,-88.0778,-1.72,30.2,2 
DISL,ioos:station:DISL:DISL:1,2013-08-04T03:00:00Z,30.2513,-88.0778,-1.72,29.89,2 
DISL,ioos:station:DISL:DISL:1,2013-08-04T03:30:00Z,30.2513,-88.0778,-1.72,29.85,2 
DISL,ioos:station:DISL:DISL:1,2013-08-04T04:00:00Z,30.2513,-88.0778,-1.72,29.87,2 
DISL,ioos:station:DISL:DISL:1,2013-08-04T04:30:00Z,30.2513,-88.0778,-1.72,29.79,2 
DISL,ioos:station:DISL:DISL:1,2013-08-04T05:00:00Z,30.2513,-88.0778,-1.72,30.17,2 
DISL,ioos:station:DISL:DISL:1,2013-08-04T05:30:00Z,30.2513,-88.0778,-1.72,30.65,2 
DISL,ioos:station:DISL:DISL:1,2013-08-04T06:00:00Z,30.2513,-88.0778,-1.72,31.47,2 
DISL,ioos:station:DISL:DISL:1,2013-08-04T06:30:00Z,30.2513,-88.0778,-1.72,31.43,2 
DISL,ioos:station:DISL:DISL:1,2013-08-04T07:00:00Z,30.2513,-88.0778,-1.72,31.16,2 
DISL,ioos:station:DISL:DISL:1,2013-08-04T07:30:00Z,30.2513,-88.0778,-1.72,30.31,2 
DISL,ioos:station:DISL:DISL:1,2013-08-04T08:00:00Z,30.2513,-88.0778,-1.72,30.11,2 
DISL,ioos:station:DISL:DISL:1,2013-08-04T08:30:00Z,30.2513,-88.0778,-1.72,29.88,2 
DISL,ioos:station:DISL:DISL:1,2013-08-04T09:00:00Z,30.2513,-88.0778,-1.72,29.7,2 
DISL,ioos:station:DISL:DISL:1,2013-08-04T09:30:00Z,30.2513,-88.0778,-1.72,29.66,2 
DISL,ioos:station:DISL:DISL:1,2013-08-04T10:00:00Z,30.2513,-88.0778,-1.72,29.5,2 
DISL,ioos:station:DISL:DISL:1,2013-08-04T10:30:00Z,30.2513,-88.0778,-1.72,29.73,2 
DISL,ioos:station:DISL:DISL:1,2013-08-04T11:00:00Z,30.2513,-88.0778,-1.72,29.82,2 
DISL,ioos:station:DISL:DISL:1,2013-08-04T11:30:00Z,30.2513,-88.0778,-1.72,29.96,2 
DISL,ioos:station:DISL:DISL:1,2013-08-04T12:00:00Z,30.2513,-88.0778,-1.72,30.22,2 
DISL,ioos:station:DISL:DISL:1,2013-08-04T12:30:00Z,30.2513,-88.0778,-1.72,30.15,2 
DISL,ioos:station:DISL:DISL:1,2013-08-04T13:00:00Z,30.2513,-88.0778,-1.72,30.48,2 
DISL,ioos:station:DISL:DISL:1,2013-08-04T13:30:00Z,30.2513,-88.0778,-1.72,30.42,2 
DISL,ioos:station:DISL:DISL:1,2013-08-04T14:00:00Z,30.2513,-88.0778,-1.72,30.52,2 
DISL,ioos:station:DISL:DISL:1,2013-08-04T14:30:00Z,30.2513,-88.0778,-1.72,30.61,2 
DISL,ioos:station:DISL:DISL:1,2013-08-04T15:00:00Z,30.2513,-88.0778,-1.72,30.65,2 
DISL,ioos:station:DISL:DISL:1,2013-08-04T15:30:00Z,30.2513,-88.0778,-1.72,30.78,2 
DISL,ioos:station:DISL:DISL:1,2013-08-04T16:00:00Z,30.2513,-88.0778,-1.72,30.92,2 
DISL,ioos:station:DISL:DISL:1,2013-08-04T16:30:00Z,30.2513,-88.0778,-1.72,31.02,2 
DISL,ioos:station:DISL:DISL:1,2013-08-04T17:00:00Z,30.2513,-88.0778,-1.72,31.05,2 
DISL,ioos:station:DISL:DISL:1,2013-08-04T17:30:00Z,30.2513,-88.0778,-1.72,31.27,2 
DISL,ioos:station:DISL:DISL:1,2013-08-04T18:00:00Z,30.2513,-88.0778,-1.72,31.44,2 
DISL,ioos:station:DISL:DISL:1,2013-08-04T18:30:00Z,30.2513,-88.0778,-1.72,31.7,2 
DISL,ioos:station:DISL:DISL:1,2013-08-04T19:00:00Z,30.2513,-88.0778,-1.72,31.91,2 
DISL,ioos:station:DISL:DISL:1,2013-08-04T19:30:00Z,30.2513,-88.0778,-1.72,32.18,2 
DISL,ioos:station:DISL:DISL:1,2013-08-04T20:00:00Z,30.2513,-88.0778,-1.72,32.45,2 
DISL,ioos:station:DISL:DISL:1,2013-08-04T20:30:00Z,30.2513,-88.0778,-1.72,32.42,2 
DISL,ioos:station:DISL:DISL:1,2013-08-04T21:00:00Z,30.2513,-88.0778,-1.72,31.06,2 
DISL,ioos:station:DISL:DISL:1,2013-08-04T21:30:00Z,30.2513,-88.0778,-1.72,31.14,2 
DISL,ioos:station:DISL:DISL:1,2013-08-04T22:00:00Z,30.2513,-88.0778,-1.72,31.19,2 
DISL,ioos:station:DISL:DISL:1,2013-08-04T22:30:00Z,30.2513,-88.0778,-1.72,31.46,2 
DISL,ioos:station:DISL:DISL:1,2013-08-04T23:00:00Z,30.2513,-88.0778,-1.72,31.63,2 
DISL,ioos:station:DISL:DISL:1,2013-08-04T23:30:00Z,30.2513,-88.0778,-1.72,31.68,2 
DISL,ioos:station:DISL:DISL:1,2013-08-05T00:00:00Z,30.2513,-88.0778,-1.72,31.66,2 
DISL,ioos:station:DISL:DISL:1,2013-08-05T00:30:00Z,30.2513,-88.0778,-1.72,31.34,2 
DISL,ioos:station:DISL:DISL:1,2013-08-05T01:00:00Z,30.2513,-88.0778,-1.72,31.18,2 
DISL,ioos:station:DISL:DISL:1,2013-08-05T01:30:00Z,30.2513,-88.0778,-1.72,31.28,2 
DISL,ioos:station:DISL:DISL:1,2013-08-05T02:00:00Z,30.2513,-88.0778,-1.72,31.28,2 
DISL,ioos:station:DISL:DISL:1,2013-08-05T02:30:00Z,30.2513,-88.0778,-1.72,30.69,2 
DISL,ioos:station:DISL:DISL:1,2013-08-05T03:00:00Z,30.2513,-88.0778,-1.72,30.95,2 
DISL,ioos:station:DISL:DISL:1,2013-08-05T03:30:00Z,30.2513,-88.0778,-1.72,30.87,2 
DISL,ioos:station:DISL:DISL:1,2013-08-05T04:00:00Z,30.2513,-88.0778,-1.72,30.65,2 
DISL,ioos:station:DISL:DISL:1,2013-08-05T04:30:00Z,30.2513,-88.0778,-1.72,31.0,2 
DISL,ioos:station:DISL:DISL:1,2013-08-05T05:00:00Z,30.2513,-88.0778,-1.72,31.05,2 
DISL,ioos:station:DISL:DISL:1,2013-08-05T05:30:00Z,30.2513,-88.0778,-1.72,31.04,2 
DISL,ioos:station:DISL:DISL:1,2013-08-05T06:00:00Z,30.2513,-88.0778,-1.72,31.04,2 
DISL,ioos:station:DISL:DISL:1,2013-08-05T06:30:00Z,30.2513,-88.0778,-1.72,31.02,2 
DISL,ioos:station:DISL:DISL:1,2013-08-05T07:00:00Z,30.2513,-88.0778,-1.72,30.95,2 
DISL,ioos:station:DISL:DISL:1,2013-08-05T07:30:00Z,30.2513,-88.0778,-1.72,30.68,2 
DISL,ioos:station:DISL:DISL:1,2013-08-05T08:00:00Z,30.2513,-88.0778,-1.72,30.74,2 
DISL,ioos:station:DISL:DISL:1,2013-08-05T08:30:00Z,30.2513,-88.0778,-1.72,30.76,2 
DISL,ioos:station:DISL:DISL:1,2013-08-05T09:00:00Z,30.2513,-88.0778,-1.72,30.72,2 
DISL,ioos:station:DISL:DISL:1,2013-08-05T09:30:00Z,30.2513,-88.0778,-1.72,30.7,2 
DISL,ioos:station:DISL:DISL:1,2013-08-05T10:00:00Z,30.2513,-88.0778,-1.72,30.55,2 
DISL,ioos:station:DISL:DISL:1,2013-08-05T10:30:00Z,30.2513,-88.0778,-1.72,30.43,2 
DISL,ioos:station:DISL:DISL:1,2013-08-05T11:00:00Z,30.2513,-88.0778,-1.72,30.52,2 
DISL,ioos:station:DISL:DISL:1,2013-08-05T11:30:00Z,30.2513,-88.0778,-1.72,30.61,2 
DISL,ioos:station:DISL:DISL:1,2013-08-05T12:00:00Z,30.2513,-88.0778,-1.72,30.53,2 
DISL,ioos:station:DISL:DISL:1,2013-08-05T12:30:00Z,30.2513,-88.0778,-1.72,30.43,2 
DISL,ioos:station:DISL:DISL:1,2013-08-05T13:00:00Z,30.2513,-88.0778,-1.72,30.36,2 
DISL,ioos:station:DISL:DISL:1,2013-08-05T13:30:00Z,30.2513,-88.0778,-1.72,30.55,2 
DISL,ioos:station:DISL:DISL:1,2013-08-05T14:00:00Z,30.2513,-88.0778,-1.72,30.61,2 
DISL,ioos:station:DISL:DISL:1,2013-08-05T14:30:00Z,30.2513,-88.0778,-1.72,30.72,2 
DISL,ioos:station:DISL:DISL:1,2013-08-05T15:00:00Z,30.2513,-88.0778,-1.72,30.74,2 
DISL,ioos:station:DISL:DISL:1,2013-08-05T15:30:00Z,30.2513,-88.0778,-1.72,30.86,2 
DISL,ioos:station:DISL:DISL:1,2013-08-05T16:00:00Z,30.2513,-88.0778,-1.72,30.94,2 
DISL,ioos:station:DISL:DISL:1,2013-08-05T16:30:00Z,30.2513,-88.0778,-1.72,31.04,2 
DISL,ioos:station:DISL:DISL:1,2013-08-05T17:00:00Z,30.2513,-88.0778,-1.72,31.2,2 
DISL,ioos:station:DISL:DISL:1,2013-08-05T17:30:00Z,30.2513,-88.0778,-1.72,31.28,2 
DISL,ioos:station:DISL:DISL:1,2013-08-05T18:00:00Z,30.2513,-88.0778,-1.72,31.5,2 
DISL,ioos:station:DISL:DISL:1,2013-08-05T18:30:00Z,30.2513,-88.0778,-1.72,31.68,2 
DISL,ioos:station:DISL:DISL:1,2013-08-05T19:00:00Z,30.2513,-88.0778,-1.72,31.63,2 
DISL,ioos:station:DISL:DISL:1,2013-08-05T19:30:00Z,30.2513,-88.0778,-1.72,31.85,2 
DISL,ioos:station:DISL:DISL:1,2013-08-05T20:00:00Z,30.2513,-88.0778,-1.72,32.37,2 
DISL,ioos:station:DISL:DISL:1,2013-08-05T20:30:00Z,30.2513,-88.0778,-1.72,32.5,2 
DISL,ioos:station:DISL:DISL:1,2013-08-05T21:00:00Z,30.2513,-88.0778,-1.72,32.25,2 
DISL,ioos:station:DISL:DISL:1,2013-08-05T21:30:00Z,30.2513,-88.0778,-1.72,32.28,2 
DISL,ioos:station:DISL:DISL:1,2013-08-05T22:00:00Z,30.2513,-88.0778,-1.72,32.72,2 
DISL,ioos:station:DISL:DISL:1,2013-08-05T22:30:00Z,30.2513,-88.0778,-1.72,32.67,2 
DISL,ioos:station:DISL:DISL:1,2013-08-05T23:00:00Z,30.2513,-88.0778,-1.72,32.64,2 
DISL,ioos:station:DISL:DISL:1,2013-08-05T23:30:00Z,30.2513,-88.0778,-1.72,32.33,2 
DISL,ioos:station:DISL:DISL:1,2013-08-06T00:00:00Z,30.2513,-88.0778,-1.72,32.27,2 
DISL,ioos:station:DISL:DISL:1,2013-08-06T00:30:00Z,30.2513,-88.0778,-1.72,32.12,2 
DISL,ioos:station:DISL:DISL:1,2013-08-06T01:00:00Z,30.2513,-88.0778,-1.72,32.03,2 
DISL,ioos:station:DISL:DISL:1,2013-08-06T01:30:00Z,30.2513,-88.0778,-1.72,31.91,2 
DISL,ioos:station:DISL:DISL:1,2013-08-06T02:00:00Z,30.2513,-88.0778,-1.72,31.65,2 
DISL,ioos:station:DISL:DISL:1,2013-08-06T02:30:00Z,30.2513,-88.0778,-1.72,31.41,2 
DISL,ioos:station:DISL:DISL:1,2013-08-06T03:00:00Z,30.2513,-88.0778,-1.72,31.1,2 
DISL,ioos:station:DISL:DISL:1,2013-08-06T03:30:00Z,30.2513,-88.0778,-1.72,31.33,2 
DISL,ioos:station:DISL:DISL:1,2013-08-06T04:00:00Z,30.2513,-88.0778,-1.72,30.7,2 
DISL,ioos:station:DISL:DISL:1,2013-08-06T04:30:00Z,30.2513,-88.0778,-1.72,30.46,2 
DISL,ioos:station:DISL:DISL:1,2013-08-06T05:00:00Z,30.2513,-88.0778,-1.72,30.23,2 
DISL,ioos:station:DISL:DISL:1,2013-08-06T05:30:00Z,30.2513,-88.0778,-1.72,30.38,2 
DISL,ioos:station:DISL:DISL:1,2013-08-06T06:00:00Z,30.2513,-88.0778,-1.72,30.55,2 
DISL,ioos:station:DISL:DISL:1,2013-08-06T06:30:00Z,30.2513,-88.0778,-1.72,30.72,2 
DISL,ioos:station:DISL:DISL:1,2013-08-06T07:00:00Z,30.2513,-88.0778,-1.72,30.67,2 
DISL,ioos:station:DISL:DISL:1,2013-08-06T07:30:00Z,30.2513,-88.0778,-1.72,30.65,2 
DISL,ioos:station:DISL:DISL:1,2013-08-06T08:00:00Z,30.2513,-88.0778,-1.72,30.45,2 
DISL,ioos:station:DISL:DISL:1,2013-08-06T08:30:00Z,30.2513,-88.0778,-1.72,30.62,2 
DISL,ioos:station:DISL:DISL:1,2013-08-06T09:00:00Z,30.2513,-88.0778,-1.72,30.55,2 
DISL,ioos:station:DISL:DISL:1,2013-08-06T09:30:00Z,30.2513,-88.0778,-1.72,30.38,2 
DISL,ioos:station:DISL:DISL:1,2013-08-06T10:00:00Z,30.2513,-88.0778,-1.72,30.24,2 
DISL,ioos:station:DISL:DISL:1,2013-08-06T10:30:00Z,30.2513,-88.0778,-1.72,30.18,2 
DISL,ioos:station:DISL:DISL:1,2013-08-06T11:00:00Z,30.2513,-88.0778,-1.72,30.06,2 
DISL,ioos:station:DISL:DISL:1,2013-08-06T11:30:00Z,30.2513,-88.0778,-1.72,29.87,2 
DISL,ioos:station:DISL:DISL:1,2013-08-06T12:00:00Z,30.2513,-88.0778,-1.72,29.44,2 
DISL,ioos:station:DISL:DISL:1,2013-08-06T12:30:00Z,30.2513,-88.0778,-1.72,29.35,2 
DISL,ioos:station:DISL:DISL:1,2013-08-06T13:00:00Z,30.2513,-88.0778,-1.72,29.19,2 
DISL,ioos:station:DISL:DISL:1,2013-08-06T13:30:00Z,30.2513,-88.0778,-1.72,29.24,2 
DISL,ioos:station:DISL:DISL:1,2013-08-06T14:00:00Z,30.2513,-88.0778,-1.72,29.39,2 
DISL,ioos:station:DISL:DISL:1,2013-08-06T14:30:00Z,30.2513,-88.0778,-1.72,29.72,2 
DISL,ioos:station:DISL:DISL:1,2013-08-06T15:00:00Z,30.2513,-88.0778,-1.72,29.8,2 
DISL,ioos:station:DISL:DISL:1,2013-08-06T15:30:00Z,30.2513,-88.0778,-1.72,30.22,2 
DISL,ioos:station:DISL:DISL:1,2013-08-06T16:00:00Z,30.2513,-88.0778,-1.72,30.25,2 
DISL,ioos:station:DISL:DISL:1,2013-08-06T16:30:00Z,30.2513,-88.0778,-1.72,30.35,2 
DISL,ioos:station:DISL:DISL:1,2013-08-06T17:00:00Z,30.2513,-88.0778,-1.72,30.66,2 
DISL,ioos:station:DISL:DISL:1,2013-08-06T17:30:00Z,30.2513,-88.0778,-1.72,30.74,2 
DISL,ioos:station:DISL:DISL:1,2013-08-06T18:00:00Z,30.2513,-88.0778,-1.72,30.63,2 
DISL,ioos:station:DISL:DISL:1,2013-08-06T18:30:00Z,30.2513,-88.0778,-1.72,31.04,2 
DISL,ioos:station:DISL:DISL:1,2013-08-06T19:00:00Z,30.2513,-88.0778,-1.72,30.98,2 
DISL,ioos:station:DISL:DISL:1,2013-08-06T19:30:00Z,30.2513,-88.0778,-1.72,31.18,2 
DISL,ioos:station:DISL:DISL:1,2013-08-06T20:00:00Z,30.2513,-88.0778,-1.72,31.37,2 
DISL,ioos:station:DISL:DISL:1,2013-08-06T20:30:00Z,30.2513,-88.0778,-1.72,31.52,2 
DISL,ioos:station:DISL:DISL:1,2013-08-06T21:00:00Z,30.2513,-88.0778,-1.72,31.81,2 
DISL,ioos:station:DISL:DISL:1,2013-08-06T21:30:00Z,30.2513,-88.0778,-1.72,32.1,2 
DISL,ioos:station:DISL:DISL:1,2013-08-06T22:00:00Z,30.2513,-88.0778,-1.72,32.34,2 
DISL,ioos:station:DISL:DISL:1,2013-08-06T22:30:00Z,30.2513,-88.0778,-1.72,32.42,2 
DISL,ioos:station:DISL:DISL:1,2013-08-06T23:00:00Z,30.2513,-88.0778,-1.72,32.47,2 
DISL,ioos:station:DISL:DISL:1,2013-08-06T23:30:00Z,30.2513,-88.0778,-1.72,32.44,2 